contact:dominique.lefevre@mio.osupytheas.fr, maurice.libes@osupytheas.fr, didier.mallarino@osupytheas.fr
Project:EMSO http://www.emso-fr.org/EMSO-France
Depth: 2436.0 m
Title:EMSO Ligure Ouest : Data MII capteur MICROCAT
DateTime_Computer,Latitude,Longitude,Temperature,Conductivity,Pressure,DateTime_Instrument
DateTime_Computer,Latitude,Longitude,degC,S m-1,dbar,DateTime_Instrument
2023-02-05T00:00:03Z,42.805,6.029,13.3049,4.60140,2470.46,2023-2-05T02:02:21Z
2023-02-05T00:03:06Z,42.805,6.029,13.3036,4.60130,2470.483,2023-2-05T02:05:24Z
2023-02-05T00:06:09Z,42.805,6.029,13.3045,4.60135,2470.474,2023-2-05T02:08:27Z
2023-02-05T00:09:12Z,42.805,6.029,13.3045,4.60132,2470.483,2023-2-05T02:11:30Z
2023-02-05T00:12:15Z,42.805,6.029,13.3040,4.60097,2470.46,2023-2-05T02:14:33Z
2023-02-05T00:15:18Z,42.805,6.029,13.3046,4.60116,2470.46,2023-2-05T02:17:36Z
2023-02-05T00:18:21Z,42.805,6.029,13.3037,4.60142,2470.474,2023-2-05T02:20:39Z
2023-02-05T00:21:24Z,42.805,6.029,13.3032,4.60113,2470.474,2023-2-05T02:23:42Z
2023-02-05T00:24:27Z,42.805,6.029,13.3034,4.60129,2470.474,2023-2-05T02:26:45Z
2023-02-05T00:27:30Z,42.805,6.029,13.3037,4.60125,2470.437,2023-2-05T02:29:48Z
2023-02-05T00:30:33Z,42.805,6.029,13.3039,4.60117,2470.45,2023-2-05T02:32:51Z
2023-02-05T00:33:36Z,42.805,6.029,13.3047,4.60115,2470.474,2023-2-05T02:35:54Z
2023-02-05T00:36:39Z,42.805,6.029,13.3046,4.60111,2470.437,2023-2-05T02:38:58Z
2023-02-05T00:39:43Z,42.805,6.029,13.3046,4.60122,2470.507,2023-2-05T02:42:01Z
2023-02-05T00:42:46Z,42.805,6.029,13.3039,4.60109,2470.46,2023-2-05T02:45:04Z
2023-02-05T00:45:49Z,42.805,6.029,13.3036,4.60116,2470.483,2023-2-05T02:48:07Z
2023-02-05T00:48:52Z,42.805,6.029,13.3034,4.60117,2470.437,2023-2-05T02:51:10Z
2023-02-05T00:51:55Z,42.805,6.029,13.3034,4.60109,2470.46,2023-2-05T02:54:13Z
2023-02-05T00:54:58Z,42.805,6.029,13.3039,4.60132,2470.446,2023-2-05T02:57:16Z
2023-02-05T00:58:01Z,42.805,6.029,13.3043,4.60117,2470.46,2023-2-05T03:00:19Z
2023-02-05T01:01:04Z,42.805,6.029,13.3048,4.60132,2470.46,2023-2-05T03:03:22Z
2023-02-05T01:04:07Z,42.805,6.029,13.3036,4.60116,2470.46,2023-2-05T03:06:25Z
2023-02-05T01:07:10Z,42.805,6.029,13.3044,4.60127,2470.474,2023-2-05T03:09:28Z
2023-02-05T01:10:13Z,42.805,6.029,13.3042,4.60114,2470.507,2023-2-05T03:12:31Z
2023-02-05T01:13:16Z,42.805,6.029,13.3041,4.60107,2470.483,2023-2-05T03:15:34Z
2023-02-05T01:16:19Z,42.805,6.029,13.3042,4.60134,2470.46,2023-2-05T03:18:37Z
2023-02-05T01:19:22Z,42.805,6.029,13.3039,4.60117,2470.46,2023-2-05T03:21:41Z
2023-02-05T01:22:26Z,42.805,6.029,13.3039,4.60122,2470.483,2023-2-05T03:24:44Z
2023-02-05T01:25:29Z,42.805,6.029,13.3039,4.60110,2470.46,2023-2-05T03:27:47Z
2023-02-05T01:28:32Z,42.805,6.029,13.3036,4.60123,2470.437,2023-2-05T03:30:50Z
2023-02-05T01:31:35Z,42.805,6.029,13.3041,4.60117,2470.437,2023-2-05T03:33:53Z
2023-02-05T01:34:38Z,42.805,6.029,13.3040,4.60119,2470.483,2023-2-05T03:36:56Z
2023-02-05T01:37:41Z,42.805,6.029,13.3048,4.60134,2470.45,2023-2-05T03:39:59Z
2023-02-05T01:40:44Z,42.805,6.029,13.3051,4.60122,2470.46,2023-2-05T03:43:02Z
2023-02-05T01:43:47Z,42.805,6.029,13.3037,4.60133,2470.46,2023-2-05T03:46:05Z
2023-02-05T01:46:50Z,42.805,6.029,13.3035,4.60117,2470.46,2023-2-05T03:49:08Z
2023-02-05T01:49:53Z,42.805,6.029,13.3047,4.60119,2470.497,2023-2-05T03:52:11Z
2023-02-05T01:52:56Z,42.805,6.029,13.3046,4.60143,2470.483,2023-2-05T03:55:14Z
2023-02-05T01:55:59Z,42.805,6.029,13.3043,4.60133,2470.483,2023-2-05T03:58:17Z
2023-02-05T01:59:02Z,42.805,6.029,13.3038,4.60109,2470.474,2023-2-05T04:01:21Z
2023-02-05T02:02:05Z,42.805,6.029,13.3054,4.60125,2470.437,2023-2-05T04:04:24Z
2023-02-05T02:05:09Z,42.805,6.029,13.3053,4.60140,2470.46,2023-2-05T04:07:27Z
2023-02-05T02:08:12Z,42.805,6.029,13.3036,4.60110,2470.497,2023-2-05T04:10:30Z
2023-02-05T02:11:15Z,42.805,6.029,13.3034,4.60115,2470.46,2023-2-05T04:13:33Z
2023-02-05T02:14:18Z,42.805,6.029,13.3047,4.60127,2470.52,2023-2-05T04:16:36Z
2023-02-05T02:17:21Z,42.805,6.029,13.3048,4.60135,2470.483,2023-2-05T04:19:39Z
2023-02-05T02:20:24Z,42.805,6.029,13.3046,4.60143,2470.45,2023-2-05T04:22:42Z
2023-02-05T02:23:27Z,42.805,6.029,13.3054,4.60144,2470.507,2023-2-05T04:25:45Z
2023-02-05T02:26:30Z,42.805,6.029,13.3048,4.60150,2470.474,2023-2-05T04:28:48Z
2023-02-05T02:29:33Z,42.805,6.029,13.3057,4.60140,2470.497,2023-2-05T04:31:51Z
2023-02-05T02:32:36Z,42.805,6.029,13.3043,4.60118,2470.497,2023-2-05T04:34:54Z
2023-02-05T02:35:39Z,42.805,6.029,13.3038,4.60114,2470.507,2023-2-05T04:37:57Z
2023-02-05T02:38:42Z,42.805,6.029,13.3041,4.60115,2470.507,2023-2-05T04:41:01Z
2023-02-05T02:41:45Z,42.805,6.029,13.3038,4.60110,2470.52,2023-2-05T04:44:04Z
2023-02-05T02:44:49Z,42.805,6.029,13.3037,4.60125,2470.507,2023-2-05T04:47:07Z
2023-02-05T02:47:52Z,42.805,6.029,13.3046,4.60111,2470.497,2023-2-05T04:50:10Z
2023-02-05T02:50:55Z,42.805,6.029,13.3043,4.60127,2470.483,2023-2-05T04:53:13Z
2023-02-05T02:53:58Z,42.805,6.029,13.3048,4.60123,2470.52,2023-2-05T04:56:16Z
2023-02-05T02:57:01Z,42.805,6.029,13.3045,4.60137,2470.497,2023-2-05T04:59:19Z
2023-02-05T03:00:04Z,42.805,6.029,13.3045,4.60139,2470.53,2023-2-05T05:02:22Z
2023-02-05T03:03:07Z,42.805,6.029,13.3060,4.60121,2470.497,2023-2-05T05:05:25Z
2023-02-05T03:06:10Z,42.805,6.029,13.3056,4.60140,2470.544,2023-2-05T05:08:28Z
2023-02-05T03:09:13Z,42.805,6.029,13.3038,4.60137,2470.507,2023-2-05T05:11:31Z
2023-02-05T03:12:16Z,42.805,6.029,13.3041,4.60112,2470.544,2023-2-05T05:14:34Z
2023-02-05T03:15:19Z,42.805,6.029,13.3036,4.60122,2470.53,2023-2-05T05:17:37Z
2023-02-05T03:18:22Z,42.805,6.029,13.3054,4.60142,2470.53,2023-2-05T05:20:41Z
2023-02-05T03:21:25Z,42.805,6.029,13.3053,4.60144,2470.53,2023-2-05T05:23:44Z
2023-02-05T03:24:29Z,42.805,6.029,13.3056,4.60120,2470.553,2023-2-05T05:26:47Z
2023-02-05T03:27:32Z,42.805,6.029,13.3039,4.60134,2470.507,2023-2-05T05:29:50Z
2023-02-05T03:30:35Z,42.805,6.029,13.3043,4.60155,2470.544,2023-2-05T05:32:53Z
2023-02-05T03:33:38Z,42.805,6.029,13.3054,4.60137,2470.52,2023-2-05T05:35:56Z
2023-02-05T03:36:41Z,42.805,6.029,13.3052,4.60097,2470.544,2023-2-05T05:38:59Z
2023-02-05T03:39:44Z,42.805,6.029,13.3061,4.60150,2470.591,2023-2-05T05:42:02Z
2023-02-05T03:42:47Z,42.805,6.029,13.3062,4.60149,2470.553,2023-2-05T05:45:05Z
2023-02-05T03:45:50Z,42.805,6.029,13.3054,4.60163,2470.567,2023-2-05T05:48:08Z
2023-02-05T03:48:53Z,42.805,6.029,13.3056,4.60144,2470.507,2023-2-05T05:51:11Z
2023-02-05T03:51:56Z,42.805,6.029,13.3050,4.60129,2470.567,2023-2-05T05:54:14Z
2023-02-05T03:54:59Z,42.805,6.029,13.3037,4.60119,2470.544,2023-2-05T05:57:17Z
2023-02-05T03:58:02Z,42.805,6.029,13.3056,4.60149,2470.553,2023-2-05T06:00:21Z
2023-02-05T04:01:05Z,42.805,6.029,13.3076,4.60150,2470.553,2023-2-05T06:03:24Z
2023-02-05T04:04:08Z,42.805,6.029,13.3062,4.60150,2470.591,2023-2-05T06:06:27Z
2023-02-05T04:07:12Z,42.805,6.029,13.3051,4.60144,2470.577,2023-2-05T06:09:30Z
2023-02-05T04:10:15Z,42.805,6.029,13.3067,4.60133,2470.6,2023-2-05T06:12:33Z
2023-02-05T04:13:18Z,42.805,6.029,13.3069,4.60143,2470.553,2023-2-05T06:15:36Z
2023-02-05T04:16:21Z,42.805,6.029,13.3065,4.60149,2470.577,2023-2-05T06:18:39Z
2023-02-05T04:19:24Z,42.805,6.029,13.3056,4.60160,2470.591,2023-2-05T06:21:42Z
2023-02-05T04:22:27Z,42.805,6.029,13.3041,4.60144,2470.6,2023-2-05T06:24:45Z
2023-02-05T04:25:30Z,42.805,6.029,13.3069,4.60152,2470.591,2023-2-05T06:27:48Z
2023-02-05T04:28:33Z,42.805,6.029,13.3063,4.60163,2470.637,2023-2-05T06:30:51Z
2023-02-05T04:31:36Z,42.805,6.029,13.3080,4.60144,2470.591,2023-2-05T06:33:54Z
2023-02-05T04:34:39Z,42.805,6.029,13.3077,4.60153,2470.614,2023-2-05T06:36:57Z
2023-02-05T04:37:42Z,42.805,6.029,13.3067,4.60173,2470.6,2023-2-05T06:40:01Z
2023-02-05T04:40:45Z,42.805,6.029,13.3071,4.60169,2470.614,2023-2-05T06:43:04Z
2023-02-05T04:43:48Z,42.805,6.029,13.3070,4.60162,2470.624,2023-2-05T06:46:07Z
2023-02-05T04:46:52Z,42.805,6.029,13.3066,4.60153,2470.614,2023-2-05T06:49:10Z
2023-02-05T04:49:55Z,42.805,6.029,13.3061,4.60157,2470.6,2023-2-05T06:52:13Z
2023-02-05T04:52:58Z,42.805,6.029,13.3059,4.60146,2470.624,2023-2-05T06:55:16Z
2023-02-05T04:56:01Z,42.805,6.029,13.3060,4.60185,2470.637,2023-2-05T06:58:19Z
2023-02-05T04:59:04Z,42.805,6.029,13.3082,4.60168,2470.646,2023-2-05T07:01:22Z
2023-02-05T05:02:07Z,42.805,6.029,13.3058,4.60172,2470.661,2023-2-05T07:04:25Z
2023-02-05T05:05:10Z,42.805,6.029,13.3063,4.60157,2470.637,2023-2-05T07:07:28Z
2023-02-05T05:08:13Z,42.805,6.029,13.3065,4.60172,2470.646,2023-2-05T07:10:31Z
2023-02-05T05:11:16Z,42.805,6.029,13.3084,4.60142,2470.624,2023-2-05T07:13:34Z
2023-02-05T05:14:19Z,42.805,6.029,13.3078,4.60158,2470.624,2023-2-05T07:16:37Z
2023-02-05T05:17:22Z,42.805,6.029,13.3052,4.60144,2470.624,2023-2-05T07:19:40Z
2023-02-05T05:20:25Z,42.805,6.029,13.3044,4.60127,2470.67,2023-2-05T07:22:44Z
2023-02-05T05:23:28Z,42.805,6.029,13.3051,4.60157,2470.684,2023-2-05T07:25:47Z
2023-02-05T05:26:32Z,42.805,6.029,13.3039,4.60175,2470.661,2023-2-05T07:28:50Z
2023-02-05T05:29:35Z,42.805,6.029,13.3059,4.60157,2470.637,2023-2-05T07:31:53Z
2023-02-05T05:32:38Z,42.805,6.029,13.3061,4.60180,2470.67,2023-2-05T07:34:56Z
2023-02-05T05:35:41Z,42.805,6.029,13.3072,4.60153,2470.646,2023-2-05T07:37:59Z
2023-02-05T05:38:44Z,42.805,6.029,13.3075,4.60175,2470.67,2023-2-05T07:41:02Z
2023-02-05T05:41:47Z,42.805,6.029,13.3068,4.60171,2470.693,2023-2-05T07:44:05Z
2023-02-05T05:44:50Z,42.805,6.029,13.3062,4.60169,2470.656,2023-2-05T07:47:08Z
2023-02-05T05:47:53Z,42.805,6.029,13.3075,4.60193,2470.684,2023-2-05T07:50:11Z
2023-02-05T05:50:56Z,42.805,6.029,13.3051,4.60144,2470.67,2023-2-05T07:53:14Z
2023-02-05T05:53:59Z,42.805,6.029,13.3053,4.60180,2470.693,2023-2-05T07:56:17Z
2023-02-05T05:57:02Z,42.805,6.029,13.3089,4.60152,2470.707,2023-2-05T07:59:20Z
2023-02-05T06:00:05Z,42.805,6.029,13.3039,4.60154,2470.73,2023-2-05T08:02:24Z
2023-02-05T06:03:08Z,42.805,6.029,13.3061,4.60203,2470.73,2023-2-05T08:05:27Z
2023-02-05T06:06:11Z,42.805,6.029,13.3065,4.60185,2470.717,2023-2-05T08:08:30Z
2023-02-05T06:09:15Z,42.805,6.029,13.3091,4.60159,2470.707,2023-2-05T08:11:33Z
2023-02-05T06:12:18Z,42.805,6.029,13.3084,4.60150,2470.707,2023-2-05T08:14:36Z
2023-02-05T06:15:21Z,42.805,6.029,13.3068,4.60157,2470.717,2023-2-05T08:17:39Z
2023-02-05T06:18:24Z,42.805,6.029,13.3065,4.60154,2470.717,2023-2-05T08:20:42Z
2023-02-05T06:21:27Z,42.805,6.029,13.3069,4.60183,2470.707,2023-2-05T08:23:45Z
2023-02-05T06:24:30Z,42.805,6.029,13.3087,4.60154,2470.717,2023-2-05T08:26:48Z
2023-02-05T06:27:33Z,42.805,6.029,13.3088,4.60156,2470.73,2023-2-05T08:29:51Z
2023-02-05T06:30:36Z,42.805,6.029,13.3078,4.60244,2470.73,2023-2-05T08:32:54Z
2023-02-05T06:33:39Z,42.805,6.029,13.3079,4.60179,2470.73,2023-2-05T08:35:57Z
2023-02-05T06:36:42Z,42.805,6.029,13.3079,4.60171,2470.717,2023-2-05T08:39:00Z
2023-02-05T06:39:45Z,42.805,6.029,13.3094,4.60163,2470.693,2023-2-05T08:42:04Z
2023-02-05T06:42:48Z,42.805,6.029,13.3073,4.60155,2470.717,2023-2-05T08:45:07Z
2023-02-05T06:45:51Z,42.805,6.029,13.3091,4.60151,2470.693,2023-2-05T08:48:10Z
2023-02-05T06:48:55Z,42.805,6.029,13.3067,4.60162,2470.73,2023-2-05T08:51:13Z
2023-02-05T06:51:58Z,42.805,6.029,13.3096,4.60166,2470.693,2023-2-05T08:54:16Z
2023-02-05T06:55:01Z,42.805,6.029,13.3119,4.60192,2470.717,2023-2-05T08:57:19Z
2023-02-05T06:58:04Z,42.805,6.029,13.3067,4.60158,2470.73,2023-2-05T09:00:22Z
2023-02-05T07:01:07Z,42.805,6.029,13.3087,4.60122,2470.754,2023-2-05T09:03:25Z
2023-02-05T07:04:10Z,42.805,6.029,13.3082,4.60113,2470.717,2023-2-05T09:06:28Z
2023-02-05T07:07:13Z,42.805,6.029,13.3061,4.60113,2470.717,2023-2-05T09:09:31Z
2023-02-05T07:10:16Z,42.805,6.029,13.3063,4.60111,2470.74,2023-2-05T09:12:34Z
2023-02-05T07:13:19Z,42.805,6.029,13.3047,4.60124,2470.763,2023-2-05T09:15:37Z
2023-02-05T07:16:22Z,42.805,6.029,13.3061,4.60115,2470.73,2023-2-05T09:18:40Z
2023-02-05T07:19:25Z,42.805,6.029,13.3065,4.60106,2470.777,2023-2-05T09:21:44Z
2023-02-05T07:22:28Z,42.805,6.029,13.3064,4.60132,2470.74,2023-2-05T09:24:47Z
2023-02-05T07:25:31Z,42.805,6.029,13.3056,4.60102,2470.74,2023-2-05T09:27:50Z
2023-02-05T07:28:35Z,42.805,6.029,13.3054,4.60110,2470.707,2023-2-05T09:30:53Z
2023-02-05T07:31:38Z,42.805,6.029,13.3049,4.60104,2470.73,2023-2-05T09:33:56Z
2023-02-05T07:34:41Z,42.805,6.029,13.3048,4.60105,2470.717,2023-2-05T09:36:59Z
2023-02-05T07:37:44Z,42.805,6.029,13.3065,4.60114,2470.74,2023-2-05T09:40:02Z
2023-02-05T07:40:47Z,42.805,6.029,13.3061,4.60104,2470.717,2023-2-05T09:43:05Z
2023-02-05T07:43:50Z,42.805,6.029,13.3052,4.60121,2470.754,2023-2-05T09:46:08Z
2023-02-05T07:46:53Z,42.805,6.029,13.3056,4.60112,2470.754,2023-2-05T09:49:11Z
2023-02-05T07:49:56Z,42.805,6.029,13.3064,4.60102,2470.73,2023-2-05T09:52:14Z
2023-02-05T07:52:59Z,42.805,6.029,13.3054,4.60104,2470.754,2023-2-05T09:55:17Z
2023-02-05T07:56:02Z,42.805,6.029,13.3063,4.60109,2470.754,2023-2-05T09:58:20Z
2023-02-05T07:59:05Z,42.805,6.029,13.3048,4.60104,2470.763,2023-2-05T10:01:24Z
2023-02-05T08:02:08Z,42.805,6.029,13.3051,4.60125,2470.74,2023-2-05T10:04:27Z
2023-02-05T08:05:11Z,42.805,6.029,13.3069,4.60116,2470.693,2023-2-05T10:07:30Z
2023-02-05T08:08:15Z,42.805,6.029,13.3053,4.60113,2470.754,2023-2-05T10:10:33Z
2023-02-05T08:11:18Z,42.805,6.029,13.3056,4.60107,2470.754,2023-2-05T10:13:36Z
2023-02-05T08:14:21Z,42.805,6.029,13.3070,4.60104,2470.74,2023-2-05T10:16:39Z
2023-02-05T08:17:24Z,42.805,6.029,13.3059,4.60104,2470.777,2023-2-05T10:19:42Z
2023-02-05T08:20:27Z,42.805,6.029,13.3048,4.60112,2470.74,2023-2-05T10:22:45Z
2023-02-05T08:23:30Z,42.805,6.029,13.3056,4.60115,2470.74,2023-2-05T10:25:48Z
2023-02-05T08:26:33Z,42.805,6.029,13.3058,4.60113,2470.717,2023-2-05T10:28:51Z
2023-02-05T08:29:36Z,42.805,6.029,13.3072,4.60115,2470.693,2023-2-05T10:31:54Z
2023-02-05T08:32:39Z,42.805,6.029,13.3062,4.60126,2470.726,2023-2-05T10:34:57Z
2023-02-05T08:35:42Z,42.805,6.029,13.3058,4.60112,2470.717,2023-2-05T10:38:00Z
2023-02-05T08:38:45Z,42.805,6.029,13.3048,4.60116,2470.717,2023-2-05T10:41:04Z
2023-02-05T08:41:48Z,42.805,6.029,13.3051,4.60119,2470.754,2023-2-05T10:44:07Z
2023-02-05T08:44:51Z,42.805,6.029,13.3051,4.60150,2470.74,2023-2-05T10:47:10Z
2023-02-05T08:47:55Z,42.805,6.029,13.3063,4.60114,2470.74,2023-2-05T10:50:13Z
2023-02-05T08:50:58Z,42.805,6.029,13.3060,4.60116,2470.74,2023-2-05T10:53:16Z
2023-02-05T08:54:01Z,42.805,6.029,13.3045,4.60117,2470.73,2023-2-05T10:56:19Z
2023-02-05T08:57:04Z,42.805,6.029,13.3061,4.60099,2470.717,2023-2-05T10:59:22Z
2023-02-05T09:00:07Z,42.805,6.029,13.3058,4.60111,2470.73,2023-2-05T11:02:25Z
2023-02-05T09:03:10Z,42.805,6.029,13.3054,4.60120,2470.717,2023-2-05T11:05:28Z
2023-02-05T09:06:13Z,42.805,6.029,13.3044,4.60103,2470.717,2023-2-05T11:08:31Z
2023-02-05T09:09:16Z,42.805,6.029,13.3054,4.60107,2470.717,2023-2-05T11:11:34Z
2023-02-05T09:12:19Z,42.805,6.029,13.3051,4.60120,2470.693,2023-2-05T11:14:37Z
2023-02-05T09:15:22Z,42.805,6.029,13.3070,4.60099,2470.717,2023-2-05T11:17:41Z
2023-02-05T09:18:25Z,42.805,6.029,13.3054,4.60107,2470.717,2023-2-05T11:20:44Z
2023-02-05T09:21:28Z,42.805,6.029,13.3050,4.60111,2470.717,2023-2-05T11:23:47Z
2023-02-05T09:24:31Z,42.805,6.029,13.3049,4.60117,2470.717,2023-2-05T11:26:50Z
2023-02-05T09:27:35Z,42.805,6.029,13.3063,4.60108,2470.684,2023-2-05T11:29:53Z
2023-02-05T09:30:38Z,42.805,6.029,13.3051,4.60107,2470.717,2023-2-05T11:32:56Z
2023-02-05T09:33:41Z,42.805,6.029,13.3051,4.60110,2470.73,2023-2-05T11:35:59Z
2023-02-05T09:36:44Z,42.805,6.029,13.3054,4.60109,2470.717,2023-2-05T11:39:02Z
2023-02-05T09:39:47Z,42.805,6.029,13.3038,4.60114,2470.717,2023-2-05T11:42:05Z
2023-02-05T09:42:50Z,42.805,6.029,13.3058,4.60105,2470.717,2023-2-05T11:45:08Z
2023-02-05T09:45:53Z,42.805,6.029,13.3048,4.60102,2470.717,2023-2-05T11:48:11Z
2023-02-05T09:48:56Z,42.805,6.029,13.3050,4.60096,2470.73,2023-2-05T11:51:14Z
2023-02-05T09:51:59Z,42.805,6.029,13.3048,4.60097,2470.707,2023-2-05T11:54:17Z
2023-02-05T09:55:02Z,42.805,6.029,13.3053,4.60104,2470.693,2023-2-05T11:57:21Z
2023-02-05T09:58:05Z,42.805,6.029,13.3062,4.60106,2470.74,2023-2-05T12:00:24Z
2023-02-05T10:01:08Z,42.805,6.029,13.3075,4.60101,2470.707,2023-2-05T12:03:27Z
2023-02-05T10:04:11Z,42.805,6.029,13.3068,4.60112,2470.707,2023-2-05T12:06:30Z
2023-02-05T10:07:15Z,42.805,6.029,13.3072,4.60118,2470.693,2023-2-05T12:09:33Z
2023-02-05T10:10:18Z,42.805,6.029,13.3060,4.60104,2470.693,2023-2-05T12:12:36Z
2023-02-05T10:13:21Z,42.805,6.029,13.3063,4.60110,2470.717,2023-2-05T12:15:39Z
2023-02-05T10:16:24Z,42.805,6.029,13.3063,4.60114,2470.707,2023-2-05T12:18:42Z
2023-02-05T10:19:27Z,42.805,6.029,13.3067,4.60111,2470.717,2023-2-05T12:21:45Z
2023-02-05T10:22:30Z,42.805,6.029,13.3069,4.60130,2470.707,2023-2-05T12:24:48Z
2023-02-05T10:25:33Z,42.805,6.029,13.3073,4.60130,2470.693,2023-2-05T12:27:51Z
2023-02-05T10:28:36Z,42.805,6.029,13.3067,4.60137,2470.707,2023-2-05T12:30:54Z
2023-02-05T10:31:39Z,42.805,6.029,13.3055,4.60125,2470.707,2023-2-05T12:33:58Z
2023-02-05T10:34:42Z,42.805,6.029,13.3055,4.60107,2470.684,2023-2-05T12:37:01Z
2023-02-05T10:37:45Z,42.805,6.029,13.3087,4.60107,2470.693,2023-2-05T12:40:04Z
2023-02-05T10:40:48Z,42.805,6.029,13.3051,4.60119,2470.67,2023-2-05T12:43:07Z
2023-02-05T10:43:52Z,42.805,6.029,13.3054,4.60147,2470.693,2023-2-05T12:46:10Z
2023-02-05T10:46:55Z,42.805,6.029,13.3089,4.60096,2470.67,2023-2-05T12:49:13Z
2023-02-05T10:49:58Z,42.805,6.029,13.3050,4.60119,2470.646,2023-2-05T12:52:16Z
2023-02-05T10:53:01Z,42.805,6.029,13.3067,4.60117,2470.67,2023-2-05T12:55:19Z
2023-02-05T10:56:04Z,42.805,6.029,13.3084,4.60113,2470.684,2023-2-05T12:58:22Z
2023-02-05T10:59:07Z,42.805,6.029,13.3068,4.60101,2470.67,2023-2-05T13:01:25Z
2023-02-05T11:02:10Z,42.805,6.029,13.3058,4.60114,2470.646,2023-2-05T13:04:28Z
2023-02-05T11:05:13Z,42.805,6.029,13.3059,4.60107,2470.661,2023-2-05T13:07:31Z
2023-02-05T11:08:16Z,42.805,6.029,13.3054,4.60121,2470.646,2023-2-05T13:10:34Z
2023-02-05T11:11:19Z,42.805,6.029,13.3063,4.60112,2470.684,2023-2-05T13:13:38Z
2023-02-05T11:14:22Z,42.805,6.029,13.3057,4.60104,2470.67,2023-2-05T13:16:41Z
2023-02-05T11:17:25Z,42.805,6.029,13.3050,4.60096,2470.646,2023-2-05T13:19:44Z
2023-02-05T11:20:29Z,42.805,6.029,13.3056,4.60111,2470.646,2023-2-05T13:22:47Z
2023-02-05T11:23:32Z,42.805,6.029,13.3058,4.60122,2470.624,2023-2-05T13:25:50Z
2023-02-05T11:26:35Z,42.805,6.029,13.3072,4.60105,2470.646,2023-2-05T13:28:53Z
2023-02-05T11:29:38Z,42.805,6.029,13.3058,4.60097,2470.624,2023-2-05T13:31:56Z
2023-02-05T11:32:41Z,42.805,6.029,13.3062,4.60128,2470.624,2023-2-05T13:34:59Z
2023-02-05T11:35:44Z,42.805,6.029,13.3040,4.60132,2470.637,2023-2-05T13:38:02Z
2023-02-05T11:38:47Z,42.805,6.029,13.3046,4.60105,2470.6,2023-2-05T13:41:05Z
2023-02-05T11:41:50Z,42.805,6.029,13.3058,4.60088,2470.624,2023-2-05T13:44:08Z
2023-02-05T11:44:53Z,42.805,6.029,13.3060,4.60098,2470.624,2023-2-05T13:47:11Z
2023-02-05T11:47:56Z,42.805,6.029,13.3047,4.60112,2470.6,2023-2-05T13:50:15Z
2023-02-05T11:50:59Z,42.805,6.029,13.3046,4.60097,2470.646,2023-2-05T13:53:18Z
2023-02-05T11:54:02Z,42.805,6.029,13.3042,4.60110,2470.6,2023-2-05T13:56:21Z
2023-02-05T11:57:06Z,42.805,6.029,13.3047,4.60109,2470.6,2023-2-05T13:59:24Z
2023-02-05T12:00:09Z,42.805,6.029,13.3038,4.60135,2470.646,2023-2-05T14:02:27Z
2023-02-05T12:03:12Z,42.805,6.029,13.3068,4.60096,2470.637,2023-2-05T14:05:30Z
2023-02-05T12:06:15Z,42.805,6.029,13.3069,4.60101,2470.591,2023-2-05T14:08:33Z
2023-02-05T12:09:18Z,42.805,6.029,13.3074,4.60121,2470.577,2023-2-05T14:11:36Z
2023-02-05T12:12:21Z,42.805,6.029,13.3082,4.60109,2470.6,2023-2-05T14:14:39Z
2023-02-05T12:15:24Z,42.805,6.029,13.3071,4.60131,2470.591,2023-2-05T14:17:42Z
2023-02-05T12:18:27Z,42.805,6.029,13.3062,4.60170,2470.591,2023-2-05T14:20:45Z
2023-02-05T12:21:30Z,42.805,6.029,13.3081,4.60152,2470.614,2023-2-05T14:23:48Z
2023-02-05T12:24:33Z,42.805,6.029,13.3084,4.60102,2470.614,2023-2-05T14:26:52Z
2023-02-05T12:27:36Z,42.805,6.029,13.3068,4.60114,2470.567,2023-2-05T14:29:55Z
2023-02-05T12:30:39Z,42.805,6.029,13.3069,4.60157,2470.614,2023-2-05T14:32:58Z
2023-02-05T12:33:42Z,42.805,6.029,13.3104,4.60135,2470.567,2023-2-05T14:36:01Z
2023-02-05T12:36:46Z,42.805,6.029,13.3090,4.60162,2470.577,2023-2-05T14:39:04Z
2023-02-05T12:39:49Z,42.805,6.029,13.3089,4.60143,2470.553,2023-2-05T14:42:07Z
2023-02-05T12:42:52Z,42.805,6.029,13.3078,4.60143,2470.553,2023-2-05T14:45:10Z
2023-02-05T12:45:55Z,42.805,6.029,13.3078,4.60142,2470.53,2023-2-05T14:48:13Z
2023-02-05T12:48:58Z,42.805,6.029,13.3062,4.60125,2470.591,2023-2-05T14:51:16Z
2023-02-05T12:52:01Z,42.805,6.029,13.3076,4.60163,2470.553,2023-2-05T14:54:19Z
2023-02-05T12:55:04Z,42.805,6.029,13.3077,4.60137,2470.553,2023-2-05T14:57:22Z
2023-02-05T12:58:07Z,42.805,6.029,13.3063,4.60132,2470.553,2023-2-05T15:00:25Z
2023-02-05T13:01:10Z,42.805,6.029,13.3088,4.60134,2470.591,2023-2-05T15:03:29Z
2023-02-05T13:04:13Z,42.805,6.029,13.3087,4.60133,2470.553,2023-2-05T15:06:32Z
2023-02-05T13:07:16Z,42.805,6.029,13.3083,4.60137,2470.53,2023-2-05T15:09:35Z
2023-02-05T13:10:19Z,42.805,6.029,13.3087,4.60159,2470.591,2023-2-05T15:12:38Z
2023-02-05T13:13:22Z,42.805,6.029,13.3064,4.60143,2470.544,2023-2-05T15:15:41Z
2023-02-05T13:16:26Z,42.805,6.029,13.3055,4.60123,2470.553,2023-2-05T15:18:44Z
2023-02-05T13:19:29Z,42.805,6.029,13.3056,4.60141,2470.544,2023-2-05T15:21:47Z
2023-02-05T13:22:32Z,42.805,6.029,13.3106,4.60114,2470.577,2023-2-05T15:24:50Z
2023-02-05T13:25:35Z,42.805,6.029,13.3101,4.60127,2470.53,2023-2-05T15:27:53Z
2023-02-05T13:28:38Z,42.805,6.029,13.3100,4.60150,2470.544,2023-2-05T15:30:56Z
2023-02-05T13:31:41Z,42.805,6.029,13.3104,4.60168,2470.544,2023-2-05T15:33:59Z
2023-02-05T13:34:44Z,42.805,6.029,13.3105,4.60143,2470.567,2023-2-05T15:37:02Z
2023-02-05T13:37:47Z,42.805,6.029,13.3089,4.60129,2470.53,2023-2-05T15:40:05Z
2023-02-05T13:40:50Z,42.805,6.029,13.3089,4.60141,2470.539,2023-2-05T15:43:09Z
2023-02-05T13:43:53Z,42.805,6.029,13.3099,4.60113,2470.567,2023-2-05T15:46:12Z
2023-02-05T13:46:56Z,42.805,6.029,13.3084,4.60168,2470.53,2023-2-05T15:49:15Z
2023-02-05T13:49:59Z,42.805,6.029,13.3063,4.60145,2470.544,2023-2-05T15:52:18Z
2023-02-05T13:53:02Z,42.805,6.029,13.3057,4.60162,2470.507,2023-2-05T15:55:21Z
2023-02-05T13:56:06Z,42.805,6.029,13.3079,4.60163,2470.567,2023-2-05T15:58:24Z
2023-02-05T13:59:09Z,42.805,6.029,13.3091,4.60151,2470.53,2023-2-05T16:01:27Z
2023-02-05T14:02:12Z,42.805,6.029,13.3106,4.60122,2470.544,2023-2-05T16:04:30Z
2023-02-05T14:05:15Z,42.805,6.029,13.3101,4.60140,2470.558,2023-2-05T16:07:33Z
2023-02-05T14:08:18Z,42.805,6.029,13.3101,4.60161,2470.53,2023-2-05T16:10:36Z
2023-02-05T14:11:21Z,42.805,6.029,13.3098,4.60170,2470.553,2023-2-05T16:13:39Z
2023-02-05T14:14:24Z,42.805,6.029,13.3091,4.60156,2470.53,2023-2-05T16:16:42Z
2023-02-05T14:17:27Z,42.805,6.029,13.3098,4.60161,2470.544,2023-2-05T16:19:45Z
2023-02-05T14:20:30Z,42.805,6.029,13.3110,4.60139,2470.53,2023-2-05T16:22:49Z
2023-02-05T14:23:33Z,42.805,6.029,13.3095,4.60129,2470.53,2023-2-05T16:25:52Z
2023-02-05T14:26:36Z,42.805,6.029,13.3100,4.60127,2470.544,2023-2-05T16:28:55Z
2023-02-05T14:29:39Z,42.805,6.029,13.3095,4.60157,2470.507,2023-2-05T16:31:58Z
2023-02-05T14:32:43Z,42.805,6.029,13.3082,4.60114,2470.52,2023-2-05T16:35:01Z
2023-02-05T14:35:46Z,42.805,6.029,13.3072,4.60152,2470.53,2023-2-05T16:38:04Z
2023-02-05T14:38:49Z,42.805,6.029,13.3076,4.60133,2470.544,2023-2-05T16:41:07Z
2023-02-05T14:41:52Z,42.805,6.029,13.3077,4.60125,2470.553,2023-2-05T16:44:10Z
2023-02-05T14:44:55Z,42.805,6.029,13.3086,4.60134,2470.567,2023-2-05T16:47:13Z
2023-02-05T14:47:58Z,42.805,6.029,13.3088,4.60154,2470.567,2023-2-05T16:50:16Z
2023-02-05T14:51:01Z,42.805,6.029,13.3093,4.60168,2470.567,2023-2-05T16:53:19Z
2023-02-05T14:54:04Z,42.805,6.029,13.3091,4.60126,2470.53,2023-2-05T16:56:23Z
2023-02-05T14:57:07Z,42.805,6.029,13.3081,4.60155,2470.544,2023-2-05T16:59:26Z
2023-02-05T15:00:10Z,42.805,6.029,13.3101,4.60142,2470.53,2023-2-05T17:02:29Z
2023-02-05T15:03:13Z,42.805,6.029,13.3101,4.60138,2470.544,2023-2-05T17:05:32Z
2023-02-05T15:06:16Z,42.805,6.029,13.3093,4.60129,2470.53,2023-2-05T17:08:35Z
2023-02-05T15:09:20Z,42.805,6.029,13.3089,4.60110,2470.53,2023-2-05T17:11:38Z
2023-02-05T15:12:23Z,42.805,6.029,13.3096,4.60138,2470.53,2023-2-05T17:14:41Z